Date,TemperatureHighF,TemperatureAvgF,TemperatureLowF,DewpointHighF,DewpointAvgF,DewpointLowF,HumidityHigh,HumidityAvg,HumidityLow,PressureMaxIn,PressureMinIn,WindSpeedMaxMPH,WindSpeedAvgMPH,GustSpeedMaxMPH,PrecipitationSumIn
2013-1-1,26,11,4,12,-9,-100,77,61,55,30.59,30.32,5,-124,0,0.00
2013-1-2,23,9,1,9,-5,-100,75,63,55,30.72,30.50,4,-64,0,0.00
2013-1-3,24,6,-3,7,-16,-100,74,57,49,30.84,30.55,4,-140,0,0.00
2013-1-4,24,8,-2,5,-8,-100,72,59,43,30.77,30.50,4,-63,0,0.00
2013-1-5,24,8,-2,5,-5,-100,72,60,44,30.83,30.49,3,-31,0,0.00
2013-1-6,22,9,-1,6,-1,-8,72,64,48,30.75,30.45,3,0,0,0.00
2013-1-7,27,11,3,8,-16,-100,74,51,43,30.50,30.26,4,-176,0,0.00
2013-1-8,30,15,7,11,-1,-100,74,59,42,30.63,30.19,4,-55,0,0.00
2013-1-9,32,15,6,13,1,-100,75,62,43,30.71,30.33,3,-43,0,0.00
2013-1-10,46,23,10,22,6,-100,75,58,34,30.36,29.44,7,-52,0,0.00
2013-1-11,45,30,15,29,9,-2,67,44,23,30.04,29.44,12,3,0,0.01
2013-1-12,26,14,4,4,0,-4,71,57,36,30.27,30.04,4,0,0,0.00
2013-1-13,22,12,3,9,-8,-100,76,57,48,30.43,30.17,3,-114,0,0.03
2013-1-14,18,4,-4,-3,-20,-100,70,52,38,30.65,30.35,4,-136,0,0.00
2013-1-15,20,6,-4,-2,-13,-100,64,50,34,30.84,30.59,4,-52,0,0.00
2013-1-16,24,11,1,2,-6,-100,67,52,36,30.92,30.66,4,-31,0,0.00
2013-1-17,30,14,3,7,-2,-100,69,55,35,30.92,30.68,3,-32,0,0.00
2013-1-18,30,14,3,9,1,-100,72,60,40,30.82,30.58,4,-10,0,0.00
2013-1-19,32,13,5,11,-11,-100,74,53,42,30.80,30.50,5,-148,0,0.00
2013-1-20,31,15,5,13,-7,-100,75,56,45,30.79,30.24,4,-119,0,0.00
2013-1-21,33,17,5,13,6,-2,76,64,44,30.71,30.52,5,0,0,0.00
2013-1-22,34,17,6,14,6,-100,76,64,44,30.70,30.52,5,-10,0,0.00
2013-1-23,31,19,8,14,8,1,76,65,49,30.73,30.54,3,0,0,0.00
2013-1-24,33,25,20,25,10,-100,78,63,56,30.54,30.40,4,-62,0,0.01
2013-1-25,35,32,30,31,25,-100,88,82,78,30.42,30.26,3,-21,0,0.05
2013-1-26,36,34,33,33,31,30,88,88,87,30.26,29.86,1,0,0,0.46
2013-1-27,50,37,34,38,28,-100,89,78,53,29.92,29.64,9,-41,0,0.02
2013-1-28,39,31,27,33,18,-100,86,70,46,29.95,29.65,6,-72,0,0.05
2013-1-29,36,26,18,22,6,-100,81,56,35,30.18,29.89,5,-73,0,0.01
2013-1-30,45,29,19,24,12,-100,80,59,35,30.31,30.05,6,-52,0,0.01
2013-1-31,46,31,22,25,18,-100,84,67,43,30.41,30.20,4,-31,0,0.00
2013-2-1,48,32,22,28,23,18,85,72,45,30.41,30.25,5,0,0,0.01
2013-2-2,45,32,22,28,23,18,85,72,44,30.56,30.39,5,0,0,0.00
2013-2-3,41,28,26,28,9,-100,85,66,59,30.39,30.14,3,-125,0,0.00
2013-2-4,47,26,24,29,-5,-100,86,55,49,30.29,30.01,5,-239,0,0.01
2013-2-5,50,32,23,28,15,-100,86,64,38,30.30,29.77,4,-72,0,0.01
2013-2-6,48,34,26,29,17,-100,85,64,42,30.11,29.80,3,-64,0,0.00
2013-2-7,49,26,24,28,3,-100,85,61,42,30.27,29.98,4,-168,0,0.00
2013-2-8,58,40,29,33,22,-100,81,56,22,29.97,29.49,13,-30,0,0.00
2013-2-9,45,35,30,31,17,-100,85,56,27,29.70,29.58,8,-41,0,0.01
2013-2-10,43,28,30,27,-4,-100,85,45,30,29.89,29.58,7,-210,0,0.00
2013-2-11,39,26,24,27,4,-100,86,60,42,30.19,29.87,4,-147,0,0.09
2013-2-12,39,28,19,17,11,-100,76,54,27,30.36,30.18,5,-20,0,0.01
2013-2-13,44,31,20,20,17,13,78,59,30,30.41,30.21,5,0,0,0.00
2013-2-14,50,34,23,23,19,-100,81,58,28,30.32,30.20,4,-10,0,0.00
2013-2-15,50,34,23,22,14,-100,77,53,20,30.47,30.28,4,-31,0,0.00
2013-2-16,53,35,22,21,18,15,77,54,24,30.51,30.12,5,0,0,0.00
2013-2-17,52,36,28,24,14,-100,74,49,19,30.12,29.66,10,-51,0,0.00
2013-2-18,47,31,21,14,-4,-100,68,33,14,30.17,29.86,5,-105,0,0.00
2013-2-19,48,32,19,17,6,-100,70,42,21,30.08,29.57,6,-52,0,0.00
2013-2-20,49,37,28,22,17,-100,70,49,27,29.59,29.47,4,-10,0,0.00
2013-2-21,50,34,31,24,3,-100,71,40,23,29.84,29.48,5,-138,0,0.00
2013-2-22,43,36,29,22,12,6,60,38,25,30.09,29.85,6,1,0,0.00
2013-2-23,49,32,24,29,18,10,85,58,23,30.07,29.69,7,1,0,0.00
2013-2-24,39,31,21,22,16,9,72,54,39,30.14,29.86,14,2,0,0.08
2013-2-25,46,33,19,20,13,4,77,49,18,30.24,29.92,5,1,0,0.00
2013-2-26,43,29,26,23,-8,-100,68,36,20,30.26,29.80,6,-188,0,0.00
2013-2-27,44,31,20,15,2,-100,71,39,20,30.42,29.99,9,-73,0,0.00
2013-2-28,51,32,19,15,3,-100,70,39,17,30.51,30.34,4,-75,0,0.00
2013-3-1,58,35,24,23,10,-100,72,45,23,30.52,30.30,5,-75,0,0.00
2013-3-2,62,42,27,26,19,-100,75,47,20,30.50,30.04,5,-31,0,0.00
2013-3-3,64,48,34,34,26,20,68,48,19,30.05,29.68,11,1,0,0.00
2013-3-4,59,47,31,40,19,-100,77,42,11,30.15,29.57,13,-29,0,0.03
2013-3-5,56,37,24,18,10,-100,66,38,16,30.34,30.06,6,-31,0,0.00
2013-3-6,67,47,27,20,17,14,67,36,13,30.07,29.67,13,1,0,0.00
2013-3-7,70,56,46,20,12,-100,33,20,11,29.80,29.58,10,-30,0,0.00
2013-3-8,57,51,46,38,23,-100,67,38,18,29.69,29.47,15,-19,0,0.00
2013-3-9,48,40,35,35,26,-100,85,63,47,30.06,29.50,6,-30,0,0.09
2013-3-10,54,44,37,23,19,15,54,38,24,30.24,30.06,13,2,0,0.00
2013-3-11,62,45,28,23,21,18,73,42,19,30.21,29.98,13,1,0,0.00
2013-3-12,65,48,36,27,17,-100,65,36,22,30.16,29.92,5,-52,0,0.00
2013-3-13,70,49,33,29,20,-100,68,39,15,30.30,30.02,5,-32,0,0.00
2013-3-14,77,54,35,27,24,21,62,35,13,30.28,30.01,4,1,0,0.00
2013-3-15,76,55,40,28,25,21,53,34,13,30.01,29.73,3,0,0,0.00
2013-3-16,72,49,45,30,4,-100,47,24,12,29.75,29.49,9,-155,0,0.00
2013-3-17,66,50,45,28,4,-100,47,21,10,29.72,29.43,12,-108,0,0.00
2013-3-18,63,46,34,15,0,-100,43,20,9,29.93,29.68,9,-84,0,0.00
2013-3-19,63,49,40,16,8,-4,36,21,7,30.06,29.86,7,1,0,0.00
2013-3-20,66,48,32,23,13,5,40,26,14,30.08,29.64,4,0,0,0.00
2013-3-21,59,46,40,33,5,-100,72,26,9,29.78,29.51,15,-87,0,0.00
2013-3-22,60,46,34,12,6,-6,36,21,9,29.79,29.51,15,3,0,0.00
2013-3-23,44,37,29,6,0,-6,37,21,14,30.13,29.79,11,3,0,0.00
2013-3-24,49,37,22,8,3,-1,47,27,13,30.20,30.02,11,2,0,0.00
2013-3-25,52,31,22,13,-13,-100,47,23,16,30.25,30.02,6,-179,0,0.00
2013-3-26,68,48,30,16,12,6,45,25,12,30.10,29.69,12,1,0,0.00
2013-3-27,74,56,33,18,14,9,49,23,9,29.90,29.73,5,1,0,0.00
2013-3-28,74,60,44,19,17,14,37,20,11,29.86,29.73,9,2,0,0.00
2013-3-29,76,61,44,28,22,17,42,24,12,29.97,29.78,6,1,0,0.00
2013-3-30,75,59,42,28,25,-100,55,31,14,30.00,29.80,9,-10,0,0.00
2013-3-31,77,57,41,29,18,-100,56,28,11,29.95,29.58,8,-52,0,0.00
2013-4-1,74,64,52,31,25,8,41,24,8,29.74,29.50,11,3,0,0.00
2013-4-2,63,50,44,39,27,-100,67,45,26,29.88,29.65,9,-30,0,0.01
2013-4-3,72,45,36,34,4,-100,78,36,14,30.05,29.80,9,-173,0,0.00
2013-4-4,76,55,39,27,14,-100,59,27,8,30.04,29.72,6,-66,0,0.00
2013-4-5,76,66,51,37,23,14,56,23,12,29.72,29.48,10,2,0,0.00
2013-4-6,74,56,41,35,22,-100,59,34,12,29.85,29.58,15,-34,0,0.00
2013-4-7,75,58,42,32,20,-100,56,29,10,29.72,29.37,12,-23,0,0.00
2013-4-8,69,56,46,43,25,-100,81,38,11,29.37,29.08,12,-8,0,0.29
2013-4-9,48,40,32,38,20,-100,84,52,32,30.06,29.24,17,-32,0,0.11
2013-4-10,53,36,30,23,3,-100,50,31,21,30.17,29.93,11,-78,0,0.00
2013-4-11,65,48,38,38,26,-100,80,49,27,29.95,29.66,5,-31,0,0.03
2013-4-12,70,55,41,34,23,7,70,36,9,29.80,29.64,7,1,0,0.00
2013-4-13,75,60,38,37,23,15,58,28,13,29.69,29.13,12,3,0,0.00
2013-4-14,63,41,46,37,-14,-100,49,19,11,29.60,29.30,7,-262,0,0.00
2013-4-15,52,47,42,38,25,-100,73,49,24,29.57,29.28,6,-32,0,0.04
2013-4-16,64,47,38,42,33,23,83,63,22,29.73,29.41,15,2,0,0.03
2013-4-17,45,39,34,33,19,9,82,49,25,30.09,29.69,17,3,0,0.07
2013-4-18,50,34,30,15,-5,-100,54,27,17,30.27,30.04,12,-146,0,0.00
2013-4-19,63,47,28,23,15,11,59,32,14,30.36,29.83,8,1,0,0.00
2013-4-20,65,53,46,42,30,19,80,45,21,29.97,29.74,5,1,0,0.12
2013-4-21,73,55,36,32,24,-100,72,37,12,30.04,29.71,10,-10,0,0.00
2013-4-22,77,63,46,32,23,14,57,26,10,29.76,29.52,11,3,0,0.00
2013-4-23,60,51,45,27,12,-100,42,23,12,29.98,29.67,10,-8,0,0.00
2013-4-24,66,53,41,19,12,4,42,22,9,30.04,29.89,6,1,0,0.00
2013-4-25,75,56,38,21,15,10,43,23,9,29.93,29.65,6,1,0,0.00
2013-4-26,77,60,41,21,15,4,44,20,6,29.98,29.78,9,1,0,0.00
2013-4-27,81,58,42,22,4,-100,43,16,4,30.06,29.78,10,-84,0,0.00
2013-4-28,86,42,45,25,-26,-100,37,12,8,29.84,29.44,5,-374,0,0.00
2013-4-29,87,66,47,31,18,-100,48,21,8,29.67,29.28,7,-51,0,0.00
2013-4-30,84,70,55,33,24,-100,40,20,10,29.51,29.26,7,-19,0,0.00
2013-5-1,64,56,47,38,16,-10,69,30,5,30.23,29.53,25,3,0,0.00
2013-5-2,66,53,43,18,9,1,28,19,9,30.45,30.21,12,3,0,0.00
2013-5-3,76,55,34,18,8,-100,42,18,7,30.24,29.71,4,-20,0,0.00
2013-5-4,83,60,40,23,10,-100,44,19,5,29.73,29.44,5,-41,0,0.00
2013-5-5,81,69,55,24,13,-100,26,13,8,29.61,29.46,15,-18,0,0.00
2013-5-6,70,58,52,50,29,-100,81,41,18,29.78,29.56,16,-51,0,0.11
2013-5-7,68,55,46,49,38,-100,87,60,32,29.87,29.71,8,-30,0,0.09
2013-5-8,65,56,48,45,41,34,83,60,33,29.91,29.70,6,1,0,0.14
2013-5-9,72,58,50,47,40,-100,86,58,27,29.91,29.78,7,-20,0,0.09
2013-5-10,80,62,47,56,41,28,82,54,16,29.99,29.82,11,1,0,0.08
2013-5-11,83,65,46,43,34,-100,78,38,12,30.13,29.90,5,-10,0,0.00
2013-5-12,88,67,53,40,25,-100,60,27,11,30.00,29.77,6,-62,0,0.00
2013-5-13,93,73,54,42,35,25,58,29,9,29.93,29.67,9,1,0,0.00
2013-5-14,96,75,54,43,33,-100,61,28,8,29.73,29.45,9,-10,0,0.00
2013-5-15,93,77,61,44,25,-100,51,19,4,29.60,29.37,11,-32,0,0.00
2013-5-16,89,74,55,43,31,-100,58,26,9,29.59,29.36,13,-9,0,0.00
2013-5-17,84,76,68,33,22,12,27,14,7,29.55,29.37,9,2,0,0.00
2013-5-18,79,70,59,43,30,20,50,24,11,29.65,29.52,9,2,0,0.00
2013-5-19,76,59,49,35,21,-100,53,28,13,29.72,29.62,13,-62,0,0.00
2013-5-20,74,63,47,37,31,-100,61,33,20,29.81,29.67,13,-9,0,0.00
2013-5-21,81,67,49,39,34,26,65,33,15,29.83,29.51,5,1,0,0.00
2013-5-22,91,70,50,37,20,-100,51,21,7,29.55,29.25,16,-53,0,0.00
2013-5-23,91,82,71,25,18,13,16,10,6,29.45,29.27,15,3,0,0.00
2013-5-24,88,77,65,24,13,-100,18,9,6,29.63,29.38,12,-9,0,0.00
2013-5-25,91,75,58,27,15,-100,27,12,6,29.63,29.46,6,-19,0,0.00
2013-5-26,90,74,59,27,15,-100,29,12,5,29.63,29.44,13,-19,0,0.00
2013-5-27,88,75,56,32,20,12,28,14,7,29.65,29.36,13,1,0,0.00
2013-5-28,87,73,56,51,27,16,79,24,10,29.51,29.19,14,3,0,0.10
2013-5-29,77,64,52,46,32,-100,77,37,12,29.60,29.44,9,-9,0,0.00
2013-5-30,83,67,49,39,29,20,62,30,10,29.66,29.52,11,1,0,0.00
2013-5-31,83,68,50,34,21,5,50,22,5,29.80,29.62,7,1,0,0.00
2013-6-1,85,71,58,31,20,13,26,15,8,29.92,29.69,21,2,0,0.00
2013-6-2,94,70,49,31,17,-100,48,19,6,29.77,29.33,6,-51,0,0.00
2013-6-3,95,80,57,38,28,22,39,18,8,29.47,29.37,14,1,0,0.00
2013-6-4,96,79,58,39,31,25,41,21,8,29.60,29.45,6,1,0,0.00
2013-6-5,94,78,58,41,31,24,44,20,8,29.67,29.49,6,1,0,0.00
2013-6-6,95,78,56,37,29,21,44,19,7,29.68,29.49,8,1,0,0.00
2013-6-7,96,77,58,38,32,28,40,22,9,29.66,29.41,13,1,0,0.00
2013-6-8,101,83,61,43,32,22,46,19,6,29.50,29.39,10,1,0,0.00
2013-6-9,104,83,60,46,32,23,38,18,6,29.63,29.42,5,0,0,0.00
2013-6-10,102,86,61,41,27,13,41,15,5,29.54,29.33,10,2,0,0.00
2013-6-11,96,84,75,34,19,-100,19,9,7,29.58,29.37,15,-18,0,0.00
2013-6-12,96,82,60,40,27,18,38,16,6,29.68,29.50,9,1,0,0.00
2013-6-13,100,88,70,47,28,0,37,14,3,29.58,29.34,23,3,0,0.00
2013-6-14,97,81,60,33,18,9,20,11,4,29.61,29.43,9,1,0,0.00
2013-6-15,96,76,58,38,24,-100,31,16,8,29.66,29.51,19,-30,0,0.00
2013-6-16,96,69,74,45,11,-100,33,15,8,29.68,29.48,8,-176,0,0.00
2013-6-17,99,74,62,35,11,-100,29,12,5,29.78,29.46,12,-103,0,0.00
2013-6-18,98,76,58,33,12,-100,32,12,4,29.60,29.32,20,-61,0,0.00
2013-6-19,95,86,71,22,14,5,15,7,4,29.42,29.25,20,3,0,0.00
2013-6-20,79,63,54,26,18,13,28,18,9,29.56,29.38,0,0,0,0.00
2013-6-24,90,85,76,30,25,19,18,11,9,29.46,29.36,12,3,0,0.00
2013-6-25,96,81,61,40,33,27,39,20,10,29.63,29.44,8,1,0,0.00
2013-6-26,104,85,63,46,37,31,44,22,8,29.68,29.53,10,1,0,0.00
2013-6-27,108,88,64,48,38,31,40,20,7,29.77,29.56,6,1,0,0.00
2013-6-28,110,88,67,51,36,-100,47,19,6,29.77,29.54,8,-10,0,0.00
2013-6-29,109,94,76,54,40,32,40,17,8,29.63,29.41,14,1,0,0.00
2013-6-30,107,88,69,54,42,35,43,23,9,29.66,29.45,5,1,0,0.00
2013-7-1,106,72,72,54,16,-100,42,18,9,29.68,29.46,6,-180,0,0.00
2013-7-2,105,89,71,51,40,31,39,19,9,29.75,29.41,7,1,0,0.00
2013-7-3,105,88,68,52,38,31,42,19,8,29.59,29.35,6,1,0,0.00
2013-7-4,103,89,72,54,43,36,38,21,11,29.53,29.34,5,1,0,0.00
2013-7-5,102,82,74,56,34,-100,44,21,12,29.48,29.31,9,-77,0,0.00
2013-7-6,101,74,71,54,31,-100,51,27,13,29.58,29.39,10,-113,0,0.00
2013-7-7,102,76,67,53,34,-100,53,28,13,29.66,29.47,7,-94,0,0.00
2013-7-8,102,80,67,56,48,-100,61,37,12,29.75,29.58,7,-12,0,0.00
2013-7-9,105,86,67,55,42,-100,44,25,10,29.79,29.54,5,-10,0,0.00
2013-7-10,107,88,67,49,38,29,44,21,7,29.71,29.46,7,0,0,0.00
2013-7-11,102,76,74,64,28,-100,70,24,14,29.64,29.37,10,-137,0,0.05
2013-7-12,97,81,67,62,50,-100,78,43,16,29.72,29.48,11,-21,0,0.00
2013-7-13,102,87,75,58,50,40,53,30,13,29.68,29.47,7,1,0,0.00
2013-7-14,102,87,69,57,48,41,58,30,13,29.73,29.48,6,1,0,0.00
2013-7-15,103,87,73,58,49,43,48,29,15,29.60,29.37,6,1,0,0.00
2013-7-16,98,85,72,65,55,51,65,39,21,29.70,29.51,9,2,0,0.01
2013-7-17,98,83,69,64,56,49,83,47,19,29.77,29.61,15,1,0,0.15
2013-7-18,99,82,70,62,55,46,73,44,18,29.82,29.53,10,1,0,0.13
2013-7-19,100,83,70,61,55,46,73,43,16,29.80,29.46,4,0,0,0.00
2013-7-20,86,77,72,59,49,-100,59,41,28,29.61,29.47,4,-31,0,0.00
2013-7-21,105,97,87,50,43,31,23,16,8,29.48,29.37,12,2,0,0.00
2013-7-22,105,89,75,56,44,28,47,23,7,29.59,29.41,7,1,0,0.00
2013-7-23,103,88,78,55,44,33,39,22,11,29.63,29.45,13,1,0,0.00
2013-7-24,98,86,72,61,48,38,47,28,16,29.67,29.53,7,1,0,0.00
2013-7-25,102,88,73,55,48,35,52,27,10,29.70,29.52,5,1,0,0.00
2013-7-26,103,87,69,50,38,-100,49,20,11,29.77,29.53,6,-40,0,0.00
2013-7-27,94,86,76,58,48,38,51,29,19,29.71,29.47,13,3,0,0.00
2013-7-28,95,80,64,63,56,48,80,47,21,29.73,29.43,11,1,0,0.28
2013-7-29,89,73,64,59,56,50,83,58,27,29.85,29.64,12,1,0,0.16
2013-7-30,96,78,61,56,50,40,79,45,14,29.95,29.74,5,0,0,0.00
2013-7-31,102,82,63,53,46,35,65,34,11,29.88,29.60,9,1,0,0.00
2013-8-1,81,74,68,61,55,46,78,54,33,29.81,29.59,11,1,0,0.04
2013-8-2,97,76,62,61,48,-100,87,47,18,29.80,29.55,6,-41,0,0.00
2013-8-3,98,86,75,55,50,42,46,31,15,29.72,29.54,7,1,0,0.00
2013-8-4,99,82,65,58,50,41,61,36,15,29.76,29.60,9,1,0,0.01
2013-8-5,93,81,72,58,51,46,59,36,20,29.75,29.59,10,1,0,0.00
2013-8-6,98,80,66,59,47,38,73,35,13,29.72,29.52,18,1,0,0.01
2013-8-7,90,76,64,56,51,45,73,43,23,29.88,29.59,12,1,0,0.11
2013-8-8,92,74,66,56,50,37,68,46,15,29.80,29.61,10,1,0,0.00
2013-8-9,94,77,58,52,45,36,69,37,13,29.79,29.62,7,1,0,0.00
2013-8-10,88,75,60,50,44,39,59,35,18,29.92,29.68,6,1,0,0.00
2013-8-11,93,76,57,50,45,38,71,37,15,29.93,29.68,6,0,0,0.00
2013-8-12,92,77,64,55,45,39,63,35,16,29.83,29.68,5,1,0,0.04
2013-8-13,95,76,56,51,43,30,70,38,10,29.91,29.68,6,0,0,0.00
2013-8-14,99,81,66,49,37,24,47,24,7,29.81,29.59,5,1,0,0.00
2013-8-15,102,79,59,45,35,24,46,24,7,29.81,29.62,4,0,0,0.00
2013-8-16,104,82,62,51,39,29,52,25,8,29.81,29.61,4,0,0,0.00
2013-8-17,95,80,65,51,42,35,50,28,14,29.80,29.64,11,1,0,0.00
2013-8-18,99,83,68,52,46,39,52,29,13,29.79,29.57,4,0,0,0.00
2013-8-19,101,84,66,53,47,42,55,31,13,29.76,29.54,6,1,0,0.00
2013-8-20,98,84,72,58,49,45,50,31,17,29.69,29.53,5,0,0,0.00
2013-8-21,99,83,69,57,48,41,58,31,14,29.76,29.57,10,2,0,0.00
2013-8-22,92,82,74,55,50,46,51,34,20,29.77,29.60,3,0,0,0.00
2013-8-23,94,76,64,60,50,43,68,43,18,29.71,29.55,6,1,0,0.03
2013-8-24,89,76,62,61,51,45,82,46,21,29.82,29.58,10,1,0,0.04
2013-8-25,72,67,64,65,61,59,87,80,65,29.95,29.80,2,0,0,0.29
2013-8-26,83,72,66,65,61,57,87,72,41,29.95,29.80,7,0,0,0.05
2013-8-27,87,74,67,65,60,-100,87,64,36,29.87,29.70,5,-10,0,0.02
2013-8-28,95,78,62,59,56,50,80,50,22,29.81,29.65,6,0,0,0.00
2013-8-29,98,81,63,60,53,47,74,43,18,29.84,29.68,3,0,0,0.00
2013-8-30,100,84,69,58,52,44,62,36,16,29.79,29.58,4,0,0,0.00
2013-8-31,98,83,68,57,52,47,62,37,19,29.73,29.53,9,1,0,0.00
2013-9-1,95,79,70,59,52,-100,60,42,24,29.70,29.56,10,-20,0,0.00
2013-9-2,98,85,73,57,51,45,56,33,17,29.75,29.52,12,2,0,0.00
2013-9-3,95,79,68,58,49,-100,57,37,19,29.77,29.64,3,-10,0,0.00
2013-9-4,102,79,65,54,44,-100,64,35,14,29.85,29.61,5,-41,0,0.00
2013-9-5,100,85,68,57,49,43,60,33,15,29.77,29.60,10,1,0,0.00
2013-9-6,101,84,67,52,46,38,51,29,12,29.79,29.56,4,0,0,0.00
2013-9-7,100,84,65,53,44,39,52,28,12,29.75,29.48,5,0,0,0.00
2013-9-8,83,75,67,61,55,49,83,52,33,29.69,29.58,4,0,0,0.02
2013-9-9,68,65,63,62,60,59,87,85,78,29.76,29.65,2,0,0,0.66
2013-9-10,77,68,62,61,59,58,88,76,54,29.78,29.65,9,1,0,0.51
2013-9-11,83,72,64,61,58,53,82,63,37,29.81,29.69,6,1,0,0.00
2013-9-12,85,71,60,64,57,51,85,66,31,29.83,29.65,7,0,0,0.12
2013-9-13,83,69,59,61,56,52,88,67,35,29.76,29.55,5,0,0,0.14
2013-9-14,72,66,62,60,57,53,86,74,53,29.71,29.58,4,0,0,0.24
2013-9-15,83,68,56,57,53,47,88,63,29,29.84,29.70,4,0,0,0.01
2013-9-16,89,71,57,56,52,42,86,55,20,29.90,29.67,5,0,0,0.00
2013-9-17,89,71,59,58,50,-100,81,52,27,29.74,29.42,8,-20,0,0.00
2013-9-18,90,79,65,51,44,31,50,31,16,29.55,29.37,9,1,0,0.00
2013-9-19,83,67,51,46,34,20,70,36,10,29.80,29.55,6,1,0,0.00
2013-9-20,86,62,45,44,30,-100,70,37,11,29.95,29.66,5,-31,0,0.00
2013-9-21,90,72,52,45,42,36,72,38,16,29.76,29.35,10,2,0,0.00
2013-9-22,79,68,54,55,48,42,85,53,28,29.55,29.25,12,2,0,0.28
2013-9-23,75,60,47,48,41,30,86,56,20,29.89,29.56,7,1,0,0.01
2013-9-24,83,64,45,44,38,25,83,46,16,30.00,29.53,11,1,0,0.00
2013-9-25,85,76,65,34,28,22,28,18,10,29.53,29.12,13,3,0,0.00
2013-9-26,82,70,66,35,24,-100,29,20,12,29.37,29.18,12,-39,0,0.00
2013-9-27,68,58,43,42,28,18,65,34,16,30.04,29.39,12,2,0,0.03
2013-9-28,70,50,36,34,24,-100,73,43,15,30.21,30.02,6,-21,0,0.00
2013-9-29,81,58,38,31,26,16,71,37,9,30.15,29.76,7,1,0,0.00
2013-9-30,87,64,45,38,31,22,67,34,10,29.86,29.60,4,0,0,0.00
2013-10-1,87,67,46,36,29,21,63,29,10,29.82,29.59,6,0,0,0.00
2013-10-2,83,69,51,39,29,23,55,26,12,29.74,29.46,8,1,0,0.00
2013-10-3,78,66,42,40,32,25,80,32,16,29.86,29.30,12,2,0,0.15
2013-10-4,54,45,37,37,30,19,86,60,33,30.27,29.82,10,2,0,0.01
2013-10-5,60,46,32,32,27,22,82,53,24,30.37,30.25,11,1,0,0.00
2013-10-6,69,49,35,37,28,-100,78,50,22,30.38,30.11,5,-20,0,0.00
2013-10-7,75,48,38,44,19,-100,80,47,21,30.18,29.78,3,-118,0,0.00
2013-10-8,79,62,43,41,29,16,78,39,10,29.84,29.47,10,1,0,0.00
2013-10-9,75,67,54,33,26,21,44,22,15,29.57,29.39,12,2,0,0.00
2013-10-10,68,55,47,47,41,29,85,65,23,29.55,29.38,8,1,0,0.38